Regional Weather Roundup
Issued by NWS

Current Version | Previous Version | Text Only | Print | Product List | Glossary On
Versions: 1 2 3 4 5 6 7 8 9 10 11 12 13 14 15 16 17 18 19 20 21 22 23 24 25 26 27
000
ASUS44 KLIX 240413
RWRLA
LOUISIANA WEATHER ROUNDUP
NATIONAL WEATHER SERVICE NEW ORLEANS LA
1000 PM CST TUE JAN 23 2018

NOTE: "FAIR" INDICATES FEW OR NO CLOUDS BELOW 12,000 FEET WITH NO
      SIGNIFICANT WEATHER AND/OR OBSTRUCTIONS TO VISIBILITY.
      SKY/WX - SKY CONDITION AND SIGNIFICANT WEATHER.
      TMP - AIR TEMPERATURE.    DP   - DEWPOINT TEMPERATURE.
      RH  - RELATIVE HUMIDITY.  PRES - PRESSURE.
      HX  - HEAT INDEX.         WCI  - WIND CHILL INDEX.

*  THESE STATIONS ARE NOT NWS OR FAA STATIONS AND ARE NOT UNDER
   NWS QUALITY CONTROL.

LAZ040-048-061>063-065-066-069-240500-
SOUTHEAST LOUISIANA

CITY           SKY/WX    TMP DP  RH WIND       PRES   REMARKS
N.O. INTL ARPT MOCLDY    51  35  54 N8        30.25R
N.O. LAKEFRONT FAIR      49  40  71 N10       30.25R
N.O. DOWNTOWN* FAIR      54  28  36 VRB7      30.26R
RESERVE*       FAIR      53  26  35 N12       30.25F
SLIDELL        FAIR      47  28  47 N7        30.25S
BATON ROUGE    FAIR      43  35  73 N5        30.27F
BOOTHVILLE     FAIR      52  41  66 N7        30.23S
BELLE CHASSE   FAIR      53  30  41 N7        30.23S
BOGALUSA*      FAIR      40  34  80 N3        30.28R
GALLIANO*      FAIR      47  33  57 N7        30.24R
NEW ROADS*     FAIR      40  34  80 NW3       30.29S
GONZALES*      FAIR      50  26  39 N7        30.25F
HAMMOND*       FAIR      41  32  70 N6        30.27S
HOUMA*         FAIR      51  30  44 N7        30.25R
PORT FOURCHON* CLEAR     54  41  62 N6        30.25R

$$

LAZ041-044-053-054-240500-
SOUTHWEST LOUISIANA

CITY           SKY/WX    TMP DP  RH WIND       PRES   REMARKS
LAKE CHARLES   FAIR      48  30  49 N5        30.29R
LAFAYETTE      FAIR      50  28  42 N8        30.28S
PATTERSON      FAIR      53  29  39 N6        30.27R
SALT POINT       N/A     51  31  46 CALM      30.26R
NEW IBERIA     FAIR      46  30  53 N8        30.27S
CHENAULT AIRPK FAIR      46  27  46 N3        30.30R

$$

LAZ027-028-240500-
CENTRAL LOUISIANA

CITY           SKY/WX    TMP DP  RH WIND       PRES   REMARKS
FORT POLK      FAIR      41  32  71 CALM      30.30R
ALEXANDRIA INT   N/A     42  32  67 CALM      30.29R
ALEXANDRIA     FAIR      35  33  92 CALM      30.30R

$$

LAZ001-002-240500-
NORTHWEST LOUISIANA

CITY           SKY/WX    TMP DP  RH WIND       PRES   REMARKS
SHREVEPORT     FAIR      40  27  59 W3        30.32R
BARKSDALE AFB  FAIR      38  26  61 CALM      30.32R
DTN SHREVEPORT FAIR      41  28  60 CALM      30.33R

$$

LAZ014-016-240500-
NORTHEAST LOUISIANA

CITY           SKY/WX    TMP DP  RH WIND       PRES   REMARKS
MONROE         FAIR      41  29  62 N6        30.32R
TALLULAH       FAIR      43  30  60 N5        30.30R

$$





USA.gov is the U.S. government's official web portal to all federal, state and local government web resources and services.